#timestamp,LO_Frequency,Hit,StdDev 
1516838415.2,286047001.0,N
1516838435.0,286047002.1,N
1516838436.0,286047002.1,N
1516838455.8,286047000.6,N
1516838475.6,286046998.6,N
1516838495.5,286047002.6,N
1516838515.3,286046998.8,N
1516838535.1,286046998.8,N
1516838555.9,286047000.3,N
1516838575.7,286046998.2,N
1516838595.6,286047000.4,N
1516838615.4,286047002.8,N
1516838635.2,286047002.7,N
1516838655.1,286046997.8,N
1516838656.0,286046997.8,N
1516838675.8,286046999.8,N
1516838695.6,286047002.1,N
1516838715.5,286046998.2,N
1516838735.3,286046997.8,N
1516838755.2,286047001.0,N
1516838775.9,286046996.7,N
1516838795.7,286047000.7,N
1516838815.6,286047000.8,N
1516838835.4,286047000.8,N
1516838855.2,286046998.7,N
1516838875.1,286046994.0,N
1516838876.0,286046994.0,N
1516838895.8,286046996.1,N
1516838915.7,286046995.8,N
1516838935.5,286046997.6,N
1516838955.3,286046995.8,N
1516838975.2,286046994.3,N
1516838995.0,286046993.1,N
1516838995.9,286046993.1,N
1516839015.8,286046991.8,N
1516839035.6,286046994.7,N
1516839055.4,286046994.8,N
1516839075.3,286046990.6,Y
1516839095.1,286046993.6,P
1516839115.8,286046996.4,N
1516839135.7,286046995.8,N
1516839155.5,286046997.9,N
1516839175.4,286046997.0,N
1516839195.2,286046998.5,N
1516839215.0,286046998.3,N
1516839215.9,286046998.3,N
1516839235.8,286046996.1,N
1516839255.6,286046996.1,N
1516839275.5,286046995.0,Y
1516839295.3,286046999.4,P
1516839315.1,286047000.9,N
1516839335.9,286047000.8,N
1516839355.7,286047001.1,N
1516839375.5,286046998.1,N
1516839395.4,286046998.7,N
1516839415.2,286047001.0,N
1516839435.1,286047000.4,N
1516839436.0,286047000.4,N
1516839455.8,286046997.2,N
1516839475.6,286046999.0,N
1516839495.5,286046999.6,N
1516839545.3,286046993.8,E
1516839555.3,286046997.7,N
1516839575.1,286047001.9,P
1516839576.0,286047001.9,N
1516839595.8,286047005.3,N
1516839615.7,286047005.9,N
1516839635.5,286047007.5,N
1516839655.4,286047007.5,N
1516839675.2,286047006.4,N
1516839695.0,286047007.5,N
1516839695.9,286047007.5,N
1516839715.8,286047009.1,N
1516839735.6,286047010.6,Y
1516839755.4,286047004.3,P
1516839775.3,286047002.0,P
1516839795.1,286047001.9,N
1516839815.9,286047001.4,N
1516839835.7,286047004.2,N
1516839855.5,286047002.4,N
1516839875.4,286046998.1,N
1516839895.2,286046998.3,N
1516839915.0,286046998.1,N
1516839915.9,286046998.1,N
1516839935.8,286046997.4,N
1516839955.6,286046996.5,N
1516839975.5,286046998.7,N
1516839995.3,286046998.2,N
1516840015.1,286046997.2,N
1516840035.9,286046999.2,N
1516840055.7,286046997.5,N
1516840075.5,286046995.3,N
1516840095.4,286046999.3,N
1516840115.2,286047001.0,N
1516840135.1,286046997.3,N
1516840136.0,286046997.3,N
1516840155.8,286046997.2,N
1516840175.6,286047000.3,N
1516840195.5,286047001.2,N
1516840215.3,286046998.1,N
1516840235.1,286047001.0,N
1516840255.9,286047001.7,N
1516840275.7,286047004.2,N
1516840295.6,286047001.9,N
1516840315.4,286047002.6,N
1516840335.2,286047006.5,N
1516840355.1,286047010.6,Y
1516840356.0,286047010.6,P
1516840375.8,286047007.6,N
1516840395.6,286047006.3,N
1516840415.5,286047009.2,N
1516840435.3,286047008.5,N
1516840455.2,286047010.2,N
1516840475.9,286047007.9,N
1516840495.7,286047008.5,N
1516840515.6,286047009.5,Y
1516840535.4,286047011.9,P
1516840555.2,286047001.9,N
1516840575.1,286046998.9,N
1516840576.0,286046998.9,N
1516840595.8,286046995.3,N
1516840615.7,286046994.4,N
1516840635.5,286046995.5,N
1516840655.3,286046992.6,N
1516840675.2,286046987.3,N
1516840695.0,286046987.3,N
1516840695.9,286046987.3,N
1516840715.8,286046987.3,N
1516840735.6,286046993.6,N
1516840755.4,286046995.6,N
1516840775.3,286046993.3,N
1516840795.1,286046996.3,N
1516840815.8,286046993.7,N
1516840835.7,286046990.5,N
1516840855.5,286046991.5,N
1516840875.3,286046990.4,N
1516840895.2,286046992.2,N
1516840915.0,286046996.0,N
1516840915.9,286046996.0,N
1516840935.8,286046997.5,N
1516840955.6,286047011.9,N
1516840975.4,286046992.6,N
1516840995.3,286046992.8,N
1516841015.1,286046993.8,N
1516841035.8,286046994.0,N
1516841055.7,286046995.7,N
1516841075.5,286046994.1,N
1516841095.4,286046995.7,N
1516841115.2,286046996.0,N
1516841135.0,286046995.8,N
1516841135.9,286046995.8,N
1516841155.8,286046995.2,N
1516841175.6,286046997.9,N
1516841195.4,286046997.5,N
1516841215.3,286046995.4,N
1516841235.1,286046996.0,N
1516841255.9,286046994.0,N
1516841275.7,286046997.1,N
1516841295.5,286046995.4,N
1516841315.4,286046992.1,N
1516841335.2,286046991.4,N
1516841355.0,286046993.0,N
1516841355.9,286046993.0,N
1516841375.8,286046996.4,N
1516841395.6,286046993.4,N
1516841415.5,286046995.9,N
1516841435.3,286046994.4,N
1516841455.1,286046993.9,N
1516841475.9,286046994.8,N
1516841495.7,286046992.6,N
1516841515.5,286046994.0,N
1516841535.4,286046992.0,Y
1516841555.2,286046998.0,P
1516841575.1,286046993.2,P
1516841576.0,286046993.2,P
1516841595.8,286046993.5,Y
1516841615.6,286047000.7,P
1516841635.5,286046997.7,N
1516841655.3,286046997.1,N
1516841675.2,286046997.1,N
1516841695.9,286046999.4,N
1516841715.7,286046998.3,N
1516841735.6,286047003.9,N
1516841755.4,286047001.7,N
1516841775.2,286046999.4,N
1516841795.1,286046999.5,N
1516841796.0,286046999.5,N
1516841815.8,286046998.8,N
1516841835.7,286047000.7,N
1516841855.5,286046995.7,N
1516841875.3,286046997.3,N
1516841895.2,286046999.1,N
1516841915.0,286046998.4,N
1516841915.9,286046998.4,N
1516841935.8,286046998.5,N
1516841955.6,286046999.2,N
1516841975.4,286046997.0,N
1516841995.3,286046995.0,N
